Back to catalog

STARLINK-32438

AliveCommunicationsVLEO
NORAD 61722·PAYLOAD·🇺🇸 United States

Launched Oct 30, 2024 from Cape Canaveral Space Force Station

Loading…

Next Passes (next 24 hours)

TLE

FreshSource: CelesTrak SupGP

Epoch: Sep 14, 2026, 22:55 UTC

1 61722C 24196R   26257.95534722  .00049625  00000+0  14666-2 0  2576
2 61722  53.1590 299.6214 0001182  87.5737 165.4848 15.34357296    17

Track STARLINK-32438 in real time with AllMySat

Download on the App Store